Regional Weather Roundup
Issued by NWS

Home | Current Version | Previous Version | Graphics & Text | Print | Product List | Glossary On
Versions: 1 2 3 4 5 6 7 8 9 10 11 12 13 14 15 16 17 18 19 20 21 22 23 24 25 26 27 28 29 30 31 32 33 34 35 36 37 38 39 40 41 42 43 44 45 46 47 48 49 50
000
ASUS43 KMPX 221401
RWRMN
WEATHER ROUNDUP FOR MINNESOTA
NATIONAL WEATHER SERVICE TWIN CITIES/CHANHASSEN MN
900 AM CDT TUE MAY 22 2018


NOTE: "FAIR" INDICATES FEW OR NO CLOUDS BELOW 12,000 FEET WITH NO
SIGNIFICANT WEATHER AND/OR OBSTRUCTIONS TO VISIBILITY. N/A MEANS
CURRENT SKY AND/OR WEATHER CONDITIONS ARE NOT AVAILABLE.

MNZ060>063-068>070-221500-
   Twin Cities Metro

CITY           SKY/WX    TMP DP  RH WIND       PRES   REMARKS
TWIN CITIES    CLOUDY    62  55  77 S7        30.06R
ST PAUL        CLOUDY    60  55  83 SE8       30.07R
CRYSTAL        FAIR      63  54  72 SW5       30.04R
BLAINE         PTSUNNY   64  55  72 CALM      30.05R
LAKEVILLE      CLOUDY    59  54  82 CALM      30.06R
EDEN PRAIRIE   CLOUDY    61  55  81 VRB3      30.05S
SOUTH ST PAUL  FAIR      59  55  87 S3        30.06R
LAKE ELMO      CLOUDY    59  55  88 SE3       30.07R
$$
MNZ001>005-007-008-013>017-022>024-027-028-221500-
   Northwest Minnesota

CITY           SKY/WX    TMP DP  RH WIND       PRES   REMARKS
BEMIDJI        FAIR      60  51  73 CALM      30.02S
HALLOCK        FAIR      64  57  77 S9        29.97R
ROSEAU         FAIR      61  55  82 S5        29.99S
WARROAD        FAIR      61  55  82 SW7       30.00S
THIEF RVR FALL FAIR      61  55  81 S7        30.01S
CROOKSTON      FAIR      63  55  77 S8        30.00S
FOSSTON        FAIR      63  54  72 SW5       30.02R
DETROIT LAKES  FAIR      61  54  77 S6        30.03R
MOORHEAD       CLOUDY    57  55  94 S8        30.02R FOG
PARK RAPIDS    CLOUDY    59  49  69 SE5       30.03R
MAHNOMEN       FAIR      62  55  76 S6        30.01S
$$
MNZ006-009>011-018-025>026-221500-
   North Central Minnesota

CITY           SKY/WX    TMP DP  RH WIND       PRES   REMARKS
BAUDETTE       FAIR      60  53  77 CALM      30.01S
FLAG ISLAND    FAIR      54  52  94 S8        29.98S
INTL FALLS     FAIR      59  49  69 W3        30.02S
WASKISH        CLOUDY    59  52  77 SW5         N/A
BIG FORK       FAIR      63  52  67 CALM      30.03S
LONGVILLE      CLOUDY    57  48  72 CALM      30.04S
GRAND RAPIDS   CLOUDY    57  45  64 CALM      30.06R
CRANE LAKE     FAIR      59  48  67 CALM      30.05S
ORR            FAIR      61  46  59 CALM      30.02S
COOK           FAIR      61  50  67 W3        30.04S
WALKER         CLOUDY    56  47  70 CALM      30.03S
$$
MNZ012-019>021-037-221500-
   Northeast Minnesota

CITY           SKY/WX    TMP DP  RH WIND       PRES   REMARKS
DULUTH         CLOUDY    64  51  62 W6        30.04R
ELY            FAIR      63  48  59 W7        30.03F
HIBBING        FAIR      61  43  51 SW5       30.03S
EVELETH        FAIR      61  43  51 CALM      30.04F
DULUTH HARBOR  CLOUDY    52  48  87 NE5       30.04S
TWO HARBORS    PTSUNNY   66  46  48 W3        30.02R
SILVER BAY     CLOUDY    66  45  45 CALM      30.01S
GRAND MARAIS     N/A     49  35  58 W12       30.00F
G MARAIS ARPRT FAIR      64  45  48 NW7       30.02S
$$
MNZ029>031-032-039>041-046>048-054>057-064-221500-
   West Central Minnesota

CITY           SKY/WX    TMP DP  RH WIND       PRES   REMARKS
FERGUS FALLS   PTSUNNY   61  55  82 S7        29.99S FOG
WHEATON        CLOUDY    57  55  94 S5        30.04R FOG
MORRIS         CLOUDY    57  57 100 S7        30.03R FOG
ALEXANDRIA     CLOUDY    61  55  81 SW3       30.05R HAZE
ELBOW LAKE     CLOUDY    59  56  91 E6        30.04R
WADENA         CLOUDY    57  48  72 CALM      30.03S
GLENWOOD       FAIR      57  55  94 S7        30.05R FOG
APPLETON       FOG       59  57  94 SE5       30.04R VSB 1/2
BENSON         FOG       57  57 100 S6        30.06R VSB 1/2
ORTONVILLE     FOG       57  55  94 S5        30.03R VSB 1/2
MADISON          N/A     61  61 100 SE5       30.03S
WILLMAR        CLOUDY    57  55  94 S3        30.08R
$$
MNZ033>034-036-042>043-049>051-058-059-221500-
   Central Minnesota

CITY           SKY/WX    TMP DP  RH WIND       PRES   REMARKS
ST CLOUD       CLOUDY    59  54  83 SW6       30.05R
SAUK CENTRE    CLOUDY    56  52  85 SE5       30.05S
PAYNESVILLE    CLOUDY    58  56  91 S3        30.06R
AITKIN         PTSUNNY   59  50  72 CALM      30.03S
PINE RIVER     CLOUDY    55  46  71 CALM      30.07S
BRAINERD       CLOUDY    62  46  55 CALM      30.04S
STAPLES        CLOUDY    57  45  62 S3        30.04R
LONG PRAIRIE   CLOUDY    54  48  82 E5        30.05R
LITTLE FALLS   CLOUDY    59  50  72 CALM      30.04S
LITCHFIELD     CLOUDY    59  57  94 CALM      30.07R
BUFFALO        CLOUDY    59  54  82 S6        30.06R
MAPLE LAKE     PTSUNNY   60  57  90 CALM      30.07R
HUTCHINSON     CLOUDY    59  58  96 CALM      30.07R FOG
$$
MNZ037-044-045-052-053-221500-
   East Central Minnesota

CITY           SKY/WX    TMP DP  RH WIND       PRES   REMARKS
PRINCETON      PTSUNNY   63  55  77 SE3       30.05R
MORA           CLOUDY    59  52  77 CALM        N/A
CAMBRIDGE      CLOUDY    63  52  67 CALM      30.04S
RUSH CITY      CLOUDY    63  55  75 CALM      30.04S
MOOSE LAKE     CLOUDY    59  52  77 CALM      30.03S
HINCKLEY       FAIR      63  55  77 CALM      30.05R
CLOQUET        CLOUDY    61  48  63 NW5       30.04S
MCGREGOR       CLOUDY    59  52  77 CALM      30.05R
$$
MNZ071>073-080-081-089-090-097-098-221500-
   Southwest Minnesota

CITY           SKY/WX    TMP DP  RH WIND       PRES   REMARKS
MONTEVIDEO     FOG       57  57 100 S6        30.05R VSB 1/4
GRANITE FALLS  FOG       59  58  99 SE6       30.06S VSB 3/4
CANBY          SUNNY     61  61  97 E3        30.05R
MARSHALL       CLOUDY    57  57 100 S6        30.06R FOG
REDWOOD FALLS  CLOUDY    58  58 100 S6        30.06R FOG
OLIVIA         CLOUDY    59  59 100 S6        30.06R FOG
PIPESTONE      CLOUDY    61  57  88 S6        30.04S
WINDOM         CLOUDY    59  45  58 S3        30.06R HAZE
WORTHINGTON    MOSUNNY   59  58  96 SE3       30.06S
JACKSON        FOG       59  59 100 SE6       30.07R VSB 1/2
TRACY          CLOUDY    58  58 100 S3        30.05R FOG
SLAYTON        FOG       56  56 100 S3        30.06R VSB 1/2
$$
MNZ065>067-074>077-082>085-091>093-221500-
   South Central Minnesota

CITY           SKY/WX    TMP DP  RH WIND       PRES   REMARKS
MANKATO        CLOUDY    60  58  92 CALM      30.07R FOG
NEW ULM        PTSUNNY   63  61  94 CALM      30.06R
ST JAMES       CLOUDY    57  57 100 S5        30.07R FOG
FAIRMONT       PTSUNNY   59  59 100 S3        30.07R FOG
GLENCOE        CLOUDY    60  60 100 CALM      30.07R FOG
FARIBAULT      PTSUNNY   61  57  88 CALM      30.07R
OWATONNA       CLOUDY    59  57  94 S3        30.08R FOG
WASECA         CLOUDY    59  55  88 CALM      30.08R FOG
ALBERT LEA     CLOUDY    61  55  82 CALM      30.08R FOG
$$
MNZ078>079-086>088-094>096-221500-
   Southeast Minnesota

CITY           SKY/WX    TMP DP  RH WIND       PRES   REMARKS
ROCHESTER      CLOUDY    56  55  97 SW7       30.09R FOG
RED WING       CLOUDY    61  54  77 CALM      30.06R
STANTON        CLOUDY    59  54  85 S6        30.07R
DODGE CENTER   CLOUDY    55  54  94 S3        30.08R FOG
WINONA         CLOUDY    57  55  94 CALM      30.04R
AUSTIN         CLOUDY    57  55  94 CALM      30.08R FOG
PRESTON        CLOUDY    55  54  95 W3        30.08R FOG
$$
ABBREVIATIONS USED IN REMARKS
   TC - TEMPERATURES IN CELSIUS
  WCI - WIND CHILL INDEX
   HX - HEAT INDEX
  VSB - VISIBILITY
$$




USA.gov is the U.S. government's official web portal to all federal, state and local government web resources and services.